This is the latest recevied weather packets stored in our database for station/object N0KTA-2. If no packets are shown the sender has not sent any weather packets the latest 10 day(s).
| Time | Temp. | Humidity | Pressure | Rain* | Wind** | Luminosity | Snow |
|---|---|---|---|---|---|---|---|
| 1777745363 | 17.22° C | 38% | 1018.3 hPa | 0 mm | - | - | - |
| 1777744764 | 17.78° C | 38% | 1018.5 hPa | 0 mm | - | - | - |
| 1777744163 | 17.78° C | 36% | 1018.6 hPa | 0 mm | - | - | - |
| 1777743564 | 17.22° C | 40% | 1018.6 hPa | 0 mm | - | - | - |
| 1777742965 | 16.67° C | 40% | 1018.8 hPa | 0 mm | - | - | - |
| 1777742365 | 17.78° C | 36% | 1018.9 hPa | 0 mm | - | - | - |
| 1777741763 | 17.22° C | 38% | 1019 hPa | 0 mm | - | - | - |
| 1777741164 | 17.22° C | 36% | 1019 hPa | 0 mm | - | - | - |
| 1777740565 | 17.22° C | 37% | 1019 hPa | 0 mm | - | - | - |
| 1777739964 | 17.22° C | 37% | 1019.1 hPa | 0 mm | - | - | - |
| 1777739365 | 16.67° C | 37% | 1019.1 hPa | 0 mm | - | - | - |
| 1777738764 | 16.67° C | 40% | 1019.1 hPa | 0 mm | - | - | - |
| 1777738165 | 16.11° C | 38% | 1019.2 hPa | 0 mm | - | - | - |
| 1777737564 | 16.11° C | 43% | 1019.1 hPa | 0 mm | - | - | - |
| 1777736965 | 15° C | 43% | 1019.2 hPa | 0 mm | - | - | - |
| 1777736364 | 14.44° C | 44% | 1019.4 hPa | 0 mm | - | - | - |
| 1777735763 | 14.44° C | 46% | 1019.5 hPa | 0 mm | - | - | - |
| 1777735163 | 13.89° C | 45% | 1019.6 hPa | 0 mm | - | - | - |
| 1777734566 | 13.89° C | 47% | 1019.5 hPa | 0 mm | - | - | - |
| 1777733965 | 13.33° C | 49% | 1019.5 hPa | 0 mm | - | - | - |
| 1777733367 | 13.33° C | 50% | 1019.3 hPa | 0 mm | - | - | - |
| 1777732765 | 12.78° C | 53% | 1019.3 hPa | 0 mm | - | - | - |
| 1777732165 | 12.22° C | 56% | 1019.4 hPa | 0 mm | - | - | - |
| 1777731565 | 11.67° C | 58% | 1019.4 hPa | 0 mm | - | - | - |
| 1777730966 | 11.67° C | 57% | 1019.4 hPa | 0 mm | - | - | - |
* Rain latest hour (hover to see other rain measurements)
** Current wind speed in m/s (hover to see current wind gust speed)